TimeEST,TemperatureF,Dew PointF,Humidity,Sea Level PressureIn,VisibilityMPH,Wind Direction,Wind SpeedMPH,Gust SpeedMPH,PrecipitationIn,Events,Conditions,WindDirDegrees,DateUTC
12:54 AM,24.1,18.0,77,30.17,10.0,SSW,3.5,-,N/A,,Clear,200,2012-11-25 05:54:00
1:54 AM,26.1,21.0,81,30.15,9.0,SSW,4.6,-,N/A,,Overcast,210,2012-11-25 06:54:00
2:54 AM,27.0,21.0,78,30.15,10.0,SSW,4.6,-,N/A,,Scattered Clouds,200,2012-11-25 07:54:00
3:54 AM,27.0,19.9,75,30.13,10.0,SSW,8.1,-,N/A,,Clear,210,2012-11-25 08:54:00
4:54 AM,26.1,19.9,78,30.12,10.0,SSW,6.9,-,N/A,,Clear,200,2012-11-25 09:54:00
5:54 AM,27.0,21.0,78,30.11,10.0,SSW,9.2,-,N/A,,Mostly Cloudy,200,2012-11-25 10:54:00
6:54 AM,27.0,21.0,78,30.10,10.0,SSW,11.5,-,N/A,,Clear,200,2012-11-25 11:54:00
7:54 AM,28.9,21.0,72,30.07,10.0,SSW,11.5,-,N/A,,Scattered Clouds,210,2012-11-25 12:54:00
8:54 AM,30.0,21.0,69,30.05,10.0,SSW,18.4,23.0,N/A,,Overcast,200,2012-11-25 13:54:00
9:54 AM,30.9,21.9,69,30.04,10.0,SSW,12.7,21.9,N/A,,Partly Cloudy,210,2012-11-25 14:54:00
10:54 AM,34.0,21.9,61,30.03,10.0,SW,15.0,-,N/A,,Clear,220,2012-11-25 15:54:00
11:54 AM,39.0,23.0,53,30.00,10.0,SW,17.3,25.3,N/A,,Clear,230,2012-11-25 16:54:00
12:54 PM,41.0,23.0,49,29.97,10.0,SW,16.1,-,N/A,,Clear,230,2012-11-25 17:54:00
1:54 PM,43.0,23.0,45,29.96,10.0,SW,18.4,-,N/A,,Clear,230,2012-11-25 18:54:00
2:54 PM,42.1,23.0,47,29.96,10.0,WSW,15.0,-,N/A,,Clear,240,2012-11-25 19:54:00
3:54 PM,43.0,25.0,49,29.96,10.0,SW,11.5,-,N/A,,Clear,230,2012-11-25 20:54:00
4:54 PM,42.1,25.0,51,29.98,10.0,SW,8.1,-,N/A,,Overcast,230,2012-11-25 21:54:00
5:54 PM,36.0,25.0,64,30.00,10.0,SSW,5.8,-,N/A,,Clear,210,2012-11-25 22:54:00
6:54 PM,37.0,26.1,65,30.02,10.0,Calm,Calm,-,N/A,,Clear,0,2012-11-25 23:54:00
7:54 PM,37.0,26.1,65,30.03,10.0,SSW,3.5,-,N/A,,Clear,210,2012-11-26 00:54:00
8:54 PM,37.0,26.1,65,30.04,10.0,SW,3.5,-,N/A,,Partly Cloudy,220,2012-11-26 01:54:00
9:54 PM,39.0,26.1,60,30.05,10.0,WSW,4.6,-,N/A,,Partly Cloudy,240,2012-11-26 02:54:00
10:54 PM,39.9,25.0,55,30.06,10.0,NW,6.9,-,N/A,,Mostly Cloudy,310,2012-11-26 03:54:00
11:54 PM,41.0,26.1,55,30.07,10.0,NW,6.9,-,N/A,,Mostly Cloudy,310,2012-11-26 04:54:00